Temp
-9 -9 -8 -9 -8 -8 -8 -9 -9 -8 -8 -8 -9 -9 -9 -9 -10 -10 -10 -10 -10 -10 -10 -9 -10 -11 -10 -10 -9 -10 -10 -9 -9 -9 -10 -10 -10 -10 -10 -10 -10 -10 -10 -10 -10 -10 -10 -10 -10
-9 -9 -9 -9 -8 -8 -8 -10 -9 -9 -8 -9 -9 -8 -8 -8 -9 -9 -10 -10 -10 -10 -10 -9 -9 -10 -11 -10 -9 -10 -9 -9 -9 -9 -10 -10 -10 -10 -10 -10 -10 -10 -10 -10 -10 -10 -10 -10 -10
-9 -9 -9 -8 -8 -8 -9 -10 -10 -10 -9 -9 -9 -9 -8 -8 -9 -9 -10 -10 -10 -10 -10 -10 -9 -10 -11 -10 -10 -9 -9 -10 -9 -10 -10 -10 -10 -10 -10 -10 -10 -10 -10 -10 -10 -11 -10 -10 -10
-10 -10 -9 -8 -8 -9 -10 -11 -10 -10 -10 -9 -9 -10 -9 -9 -9 -9 -10 -10 -10 -10 -10 -10 -10 -10 -11 -11 -10 -10 -10 -10 -10 -11 -11 -11 -10 -10 -10 -10 -10 -10 -10 -10 -11 -11 -11 -11 -11
-11 -10 -10 -9 -9 -10 -11 -11 -10 -10 -10 -10 -10 -10 -10 -10 -10 -10 -10 -10 -11 -11 -10 -10 -10 -10 -10 -11 -11 -10 -10 -11 -10 -11 -11 -11 -11 -11 -10 -10 -10 -11 -11 -11 -11 -11 -11 -11 -11
-10 -10 -10 -9 -10 -11 -11 -12 -11 -11 -11 -11 -10 -11 -11 -10 -10 -10 -10 -11 -11 -11 -11 -10 -10 -10 -10 -11 -11 -11 -11 -10 -11 -10 -10 -11 -11 -11 -11 -11 -11 -11 -11 -11 -11 -11 -11 -11 -11
-10 -10 -10 -10 -10 -10 -11 -12 -11 -11 -11 -11 -11 -11 -11 -11 -11 -11 -11 -11 -11 -11 -11 -11 -11 -10 -10 -11 -11 -11 -11 -11 -11 -11 -11 -11 -11 -11 -11 -11 -11 -11 -11 -11 -12 -12 -12 -12 -12
-11 -10 -9 -10 -10 -10 -11 -11 -12 -11 -11 -12 -11 -11 -11 -11 -11 -11 -11 -11 -11 -11 -12 -11 -11 -11 -10 -11 -11 -12 -11 -11 -11 -11 -11 -11 -11 -11 -11 -11 -11 -11 -11 -12 -12 -12 -12 -12 -12
-11 -10 -10 -10 -11 -11 -12 -12 -11 -11 -11 -11 -12 -11 -12 -12 -12 -11 -11 -11 -12 -12 -12 -12 -12 -11 -11 -11 -11 -11 -11 -12 -11 -12 -12 -12 -12 -12 -12 -12 -12 -11 -11 -11 -11 -12 -12 -12 -12
-11 -10 -11 -11 -11 -11 -11 -11 -12 -11 -11 -10 -11 -12 -12 -12 -12 -12 -11 -12 -12 -12 -12 -12 -12 -12 -12 -11 -11 -11 -12 -12 -12 -12 -12 -12 -12 -12 -12 -12 -12 -12 -12 -12 -12 -12 -12 -12 -12
-10 -9 -11 -11 -12 -11 -11 -11 -11 -11 -11 -10 -11 -12 -12 -12 -12 -12 -12 -12 -12 -12 -12 -13 -13 -12 -12 -12 -12 -11 -11 -12 -12 -12 -12 -12 -12 -12 -12 -12 -12 -12 -12 -12 -12 -12 -12 -12 -13
-10 -10 -12 -11 -12 -12 -11 -11 -11 -11 -11 -11 -10 -11 -11 -12 -12 -12 -12 -12 -12 -12 -13 -13 -13 -13 -13 -12 -12 -12 -12 -12 -12 -12 -12 -12 -12 -12 -12 -12 -12 -12 -12 -12 -12 -12 -13 -13 -13
-11 -11 -11 -12 -12 -12 -12 -12 -12 -11 -11 -11 -11 -11 -11 -12 -13 -12 -12 -12 -12 -13 -13 -13 -13 -13 -13 -13 -13 -12 -12 -12 -12 -12 -12 -13 -13 -13 -13 -13 -13 -13 -13 -12 -12 -12 -13 -13 -13
-12 -12 -11 -11 -12 -12 -12 -12 -12 -12 -12 -12 -12 -12 -12 -12 -13 -13 -12 -12 -13 -13 -13 -13 -13 -13 -13 -13 -13 -13 -13 -12 -12 -13 -13 -13 -13 -13 -13 -13 -13 -13 -13 -13 -13 -13 -13 -13 -13
-13 -12 -12 -12 -13 -13 -13 -12 -12 -12 -13 -13 -12 -12 -12 -12 -12 -13 -13 -13 -13 -13 -13 -13 -14 -14 -13 -13 -14 -13 -13 -13 -13 -13 -14 -14 -14 -14 -14 -14 -14 -14 -13 -13 -13 -13 -13 -13 -13
-13 -13 -12 -13 -14 -14 -14 -11 -13 -13 -13 -13 -13 -13 -13 -13 -13 -13 -13 -13 -13 -13 -13 -13 -14 -14 -14 -14 -14 -14 -14 -14 -14 -14 -14 -14 -14 -14 -14 -14 -14 -14 -14 -13 -13 -13 -13 -13 -13
-13 -13 -14 -13 -14 -15 -15 -13 -13 -14 -14 -13 -14 -14 -13 -13 -13 -13 -13 -14 -14 -13 -13 -13 -14 -14 -14 -14 -14 -14 -14 -14 -14 -14 -14 -14 -14 -14 -14 -14 -14 -14 -14 -14 -14 -13 -13 -13 -13
-15 -15 -15 -14 -15 -15 -15 -14 -14 -14 -14 -14 -14 -14 -14 -13 -14 -14 -14 -14 -14 -14 -14 -14 -14 -14 -14 -15 -15 -15 -15 -15 -15 -15 -15 -15 -15 -15 -15 -15 -15 -14 -14 -14 -14 -14 -14 -13 -13
-16 -16 -16 -15 -15 -16 -16 -15 -15 -15 -15 -14 -14 -14 -14 -14 -14 -14 -14 -15 -14 -14 -14 -14 -14 -15 -15 -16 -16 -16 -15 -15 -16 -16 -16 -16 -16 -16 -15 -15 -15 -15 -15 -14 -14 -14 -14 -14 -14
-17 -17 -16 -16 -16 -17 -16 -16 -15 -15 -14 -15 -15 -15 -15 -15 -15 -15 -15 -15 -15 -15 -15 -15 -15 -15 -15 -15 -15 -15 -15 -16 -16 -16 -16 -16 -16 -16 -16 -16 -16 -16 -15 -15 -15 -15 -15 -15 -15
-18 -18 -18 -17 -17 -17 -16 -15 -15 -15 -15 -15 -15 -16 -15 -16 -16 -15 -15 -16 -15 -15 -15 -16 -16 -16 -16 -15 -16 -16 -16 -16 -16 -16 -16 -16 -17 -17 -17 -17 -17 -16 -16 -16 -16 -16 -15 -15 -15
-18 -20 -19 -18 -18 -17 -17 -16 -15 -15 -15 -16 -16 -16 -16 -16 -16 -17 -17 -17 -16 -17 -17 -16 -16 -16 -16 -16 -17 -17 -16 -16 -16 -17 -17 -17 -17 -17 -17 -16 -16 -16 -16 -16 -16 -16 -16 -16 -16
-19 -20 -20 -19 -19 -18 -18 -17 -14 -15 -16 -16 -17 -17 -17 -16 -17 -17 -18 -17 -18 -17 -17 -18 -17 -17 -17 -17 -17 -17 -17 -17 -17 -17 -17 -17 -17 -17 -17 -17 -17 -17 -17 -17 -16 -16 -16 -16 -16
-20 -20 -19 -19 -19 -19 -18 -18 -16 -17 -16 -16 -17 -18 -17 -17 -17 -17 -17 -17 -17 -17 -17 -17 -17 -17 -17 -17 -17 -17 -17 -17 -17 -17 -17 -17 -17 -17 -17 -17 -17 -17 -17 -17 -17 -17 -16 -16 -16
-21 -20 -20 -20 -19 -19 -19 -19 -18 -17 -17 -17 -18 -18 -18 -18 -17 -17 -17 -17 -17 -17 -17 -17 -17 -16 -17 -17 -17 -17 -17 -17 -16 -16 -16 -16 -16 -16 -16 -16 -16 -17 -17 -17 -17 -17 -17 -17 -17
-21 -21 -21 -20 -20 -19 -19 -19 -19 -19 -18 -18 -18 -18 -18 -18 -18 -18 -18 -17 -17 -16 -16 -16 -16 -17 -17 -17 -17 -17 -17 -16 -16 -16 -16 -16 -16 -16 -17 -17 -18 -17 -17 -17 -17 -17 -18 -18 -18
-21 -21 -21 -20 -20 -20 -20 -19 -19 -19 -19 -19 -19 -19 -18 -18 -18 -19 -19 -19 -18 -17 -17 -17 -17 -17 -17 -18 -18 -18 -18 -18 -18 -18 -17 -18 -18 -18 -18 -18 -18 -18 -18 -18 -18 -18 -18 -18 -18
-21 -21 -21 -21 -21 -20 -20 -20 -19 -19 -20 -20 -20 -20 -20 -19 -19 -19 -19 -19 -19 -19 -19 -18 -17 -18 -18 -19 -19 -19 -19 -19 -18 -18 -18 -18 -18 -18 -18 -18 -18 -18 -18 -18 -18 -18 -19 -19 -19
-22 -21 -22 -21 -21 -21 -21 -20 -20 -20 -20 -20 -20 -20 -20 -20 -20 -19 -19 -19 -19 -19 -19 -19 -19 -19 -19 -19 -19 -19 -19 -19 -19 -19 -18 -18 -18 -18 -18 -18 -18 -18 -19 -19 -19 -19 -20 -20 -20
-22 -22 -22 -22 -22 -22 -22 -21 -21 -20 -20 -20 -20 -20 -20 -20 -20 -20 -20 -20 -19 -19 -19 -19 -19 -19 -19 -19 -19 -19 -19 -19 -19 -20 -20 -20 -19 -20 -19 -20 -20 -20 -20 -20 -20 -20 -20 -20 -20
Height
5814 5814 5812 5811 5813 5812 5814 5812 5808 5809 5811 5809 5807 5807 5807 5805 5805 5806 5806 5808 5806 5806 5806 5808 5808 5808 5808 5809 5807 5809 5810 5810 5808 5810 5811 5814 5817 5817 5820 5823 5824 5826 5827 5828 5830 5832 5834 5835 5836
5808 5808 5808 5807 5807 5809 5813 5807 5806 5808 5807 5806 5805 5804 5805 5804 5805 5803 5804 5806 5805 5803 5804 5806 5807 5807 5806 5807 5807 5808 5809 5809 5809 5810 5812 5815 5815 5817 5819 5821 5822 5823 5825 5827 5830 5832 5833 5834 5835
5804 5803 5801 5801 5801 5806 5808 5803 5800 5803 5804 5802 5802 5802 5800 5801 5801 5801 5801 5803 5803 5802 5802 5803 5804 5805 5804 5805 5806 5806 5806 5808 5809 5809 5812 5813 5815 5817 5818 5818 5820 5822 5824 5826 5828 5830 5832 5833 5834
5798 5797 5796 5793 5798 5802 5802 5798 5795 5796 5798 5797 5796 5796 5798 5795 5795 5795 5796 5797 5799 5800 5800 5800 5802 5803 5802 5802 5804 5805 5805 5806 5807 5807 5810 5812 5814 5815 5817 5814 5817 5820 5823 5824 5827 5828 5830 5832 5832
5793 5792 5790 5789 5794 5796 5796 5793 5791 5790 5791 5792 5790 5791 5791 5791 5790 5790 5790 5792 5794 5796 5797 5798 5799 5800 5800 5800 5801 5802 5803 5804 5805 5807 5808 5810 5811 5813 5813 5813 5815 5818 5820 5823 5825 5826 5828 5829 5830
5787 5787 5785 5786 5788 5790 5790 5788 5785 5784 5786 5786 5787 5788 5788 5788 5787 5786 5787 5787 5789 5790 5792 5794 5796 5797 5797 5797 5799 5800 5800 5801 5802 5803 5805 5807 5809 5810 5811 5813 5814 5817 5819 5820 5822 5823 5825 5827 5827
5782 5780 5779 5780 5783 5783 5786 5783 5782 5779 5777 5782 5783 5782 5784 5784 5784 5781 5782 5782 5784 5786 5788 5789 5790 5792 5793 5794 5795 5796 5798 5798 5799 5800 5801 5803 5805 5807 5808 5810 5812 5813 5815 5817 5819 5820 5821 5823 5824
5775 5772 5771 5773 5775 5776 5777 5775 5776 5773 5771 5772 5775 5776 5779 5779 5778 5777 5777 5778 5780 5782 5783 5785 5785 5787 5789 5790 5791 5792 5793 5794 5794 5795 5797 5799 5800 5802 5804 5806 5808 5809 5811 5812 5814 5816 5817 5819 5820
5767 5765 5765 5768 5767 5766 5767 5766 5767 5767 5766 5765 5767 5770 5772 5772 5771 5771 5771 5773 5773 5775 5777 5779 5781 5782 5784 5786 5786 5787 5788 5789 5791 5790 5791 5793 5796 5798 5800 5802 5804 5805 5806 5808 5810 5811 5813 5815 5816
5758 5756 5759 5760 5758 5756 5755 5755 5757 5759 5760 5761 5760 5762 5763 5764 5764 5765 5765 5766 5767 5768 5770 5772 5774 5778 5778 5779 5781 5781 5783 5785 5786 5787 5788 5788 5790 5793 5795 5796 5799 5800 5802 5803 5805 5806 5808 5810 5811
5750 5748 5751 5751 5749 5747 5745 5745 5745 5749 5752 5756 5752 5752 5754 5756 5757 5758 5759 5760 5761 5761 5763 5765 5767 5770 5772 5773 5775 5776 5776 5779 5781 5783 5784 5785 5786 5788 5790 5791 5794 5795 5796 5798 5800 5802 5803 5805 5806
5738 5739 5741 5741 5739 5736 5737 5737 5736 5738 5743 5745 5744 5743 5743 5747 5750 5751 5752 5753 5754 5755 5755 5757 5760 5761 5764 5766 5768 5770 5771 5772 5775 5777 5779 5781 5782 5784 5785 5787 5789 5791 5792 5793 5796 5797 5798 5800 5802
5728 5731 5729 5730 5728 5727 5727 5728 5728 5729 5730 5732 5733 5735 5734 5737 5740 5743 5744 5745 5747 5748 5749 5750 5752 5754 5756 5758 5760 5763 5765 5766 5768 5770 5773 5776 5777 5778 5780 5782 5784 5786 5787 5789 5790 5791 5793 5795 5797
5718 5718 5719 5717 5716 5715 5716 5720 5718 5721 5720 5721 5723 5724 5726 5727 5730 5733 5736 5737 5738 5740 5742 5743 5745 5746 5748 5750 5752 5755 5758 5760 5762 5764 5767 5770 5772 5773 5775 5776 5778 5779 5782 5783 5784 5785 5787 5789 5791
5704 5703 5704 5704 5705 5703 5702 5706 5709 5712 5708 5710 5711 5713 5715 5716 5720 5724 5725 5727 5729 5731 5734 5736 5737 5739 5741 5743 5745 5747 5750 5752 5755 5757 5759 5762 5764 5767 5768 5770 5771 5773 5775 5777 5778 5779 5781 5783 5785
5693 5690 5691 5697 5695 5693 5687 5693 5698 5698 5696 5696 5698 5701 5704 5706 5709 5711 5714 5717 5720 5722 5726 5727 5729 5731 5733 5736 5738 5740 5742 5745 5747 5750 5752 5754 5756 5758 5760 5762 5764 5766 5767 5769 5771 5772 5774 5776 5778
5678 5678 5678 5680 5677 5671 5668 5677 5679 5681 5683 5685 5686 5688 5692 5696 5697 5700 5702 5706 5709 5712 5717 5719 5720 5722 5725 5727 5730 5732 5734 5736 5739 5742 5744 5746 5747 5749 5751 5753 5755 5757 5758 5760 5762 5764 5766 5767 5769
5664 5657 5658 5660 5667 5659 5657 5663 5666 5667 5670 5673 5675 5676 5679 5683 5687 5689 5690 5693 5698 5702 5706 5708 5710 5713 5715 5718 5720 5722 5725 5727 5729 5732 5734 5736 5738 5739 5741 5743 5744 5746 5748 5750 5752 5754 5756 5758 5760
5643 5640 5641 5647 5648 5641 5644 5649 5655 5653 5656 5661 5663 5665 5667 5671 5673 5676 5680 5682 5685 5689 5694 5697 5700 5703 5704 5707 5709 5712 5715 5716 5718 5720 5723 5725 5727 5729 5731 5732 5734 5736 5738 5740 5742 5744 5746 5747 5750
5627 5625 5626 5630 5629 5623 5627 5630 5638 5640 5643 5646 5649 5652 5655 5657 5661 5664 5667 5670 5674 5677 5681 5684 5687 5690 5693 5696 5697 5699 5702 5704 5706 5709 5711 5714 5716 5717 5719 5721 5722 5724 5726 5728 5730 5732 5734 5736 5738
5616 5611 5613 5611 5611 5608 5608 5612 5623 5629 5630 5633 5636 5640 5642 5645 5649 5651 5654 5658 5662 5665 5669 5672 5675 5677 5680 5682 5685 5687 5690 5692 5696 5698 5699 5701 5702 5704 5707 5709 5711 5712 5714 5716 5718 5720 5723 5725 5726
5597 5601 5598 5598 5595 5596 5596 5593 5607 5612 5617 5620 5622 5625 5630 5634 5637 5640 5642 5645 5649 5652 5654 5658 5661 5663 5665 5668 5671 5675 5677 5679 5681 5682 5683 5686 5689 5691 5694 5696 5698 5700 5702 5704 5705 5707 5710 5712 5714
5588 5585 5585 5586 5584 5583 5585 5584 5595 5595 5599 5603 5605 5610 5613 5617 5620 5623 5627 5630 5633 5635 5638 5641 5643 5647 5650 5653 5656 5659 5661 5664 5666 5668 5670 5673 5675 5678 5680 5682 5684 5687 5689 5690 5692 5694 5696 5698 5700
5576 5575 5574 5574 5573 5570 5581 5573 5577 5576 5582 5588 5591 5594 5598 5602 5607 5611 5612 5616 5618 5619 5622 5626 5630 5632 5636 5638 5641 5644 5647 5648 5651 5653 5655 5657 5659 5662 5664 5666 5668 5670 5673 5675 5677 5679 5680 5682 5683
5568 5566 5563 5562 5563 5564 5567 5561 5564 5564 5568 5573 5574 5578 5583 5587 5589 5593 5597 5600 5603 5607 5609 5609 5612 5615 5620 5623 5625 5627 5630 5632 5635 5638 5639 5641 5642 5645 5646 5648 5649 5652 5654 5657 5659 5661 5663 5664 5666
5560 5558 5558 5553 5552 5553 5554 5552 5556 5556 5556 5560 5564 5564 5568 5572 5574 5577 5580 5583 5583 5588 5591 5593 5596 5599 5603 5605 5608 5609 5611 5615 5618 5621 5622 5624 5627 5629 5631 5633 5635 5637 5639 5640 5642 5644 5646 5648 5650
5551 5550 5550 5546 5545 5543 5545 5546 5547 5546 5548 5549 5551 5554 5557 5559 5561 5563 5565 5566 5567 5570 5574 5577 5580 5583 5586 5589 5592 5594 5597 5599 5601 5603 5605 5607 5609 5611 5613 5615 5618 5620 5623 5625 5626 5628 5630 5632 5634
5542 5542 5541 5539 5536 5533 5535 5535 5535 5538 5539 5540 5541 5542 5544 5547 5549 5550 5552 5553 5554 5556 5558 5561 5565 5568 5570 5574 5576 5579 5582 5584 5586 5588 5590 5591 5593 5595 5598 5600 5603 5605 5607 5609 5610 5611 5613 5615 5617
5533 5532 5532 5530 5528 5526 5525 5526 5527 5528 5528 5528 5530 5531 5532 5533 5535 5537 5538 5540 5541 5542 5545 5548 5550 5551 5553 5555 5558 5561 5563 5566 5569 5571 5573 5575 5577 5579 5581 5583 5586 5588 5589 5591 5593 5595 5596 5598 5599
5521 5520 5520 5519 5519 5517 5515 5514 5516 5517 5516 5516 5517 5519 5519 5520 5522 5524 5525 5526 5528 5530 5531 5532 5534 5536 5538 5541 5542 5544 5545 5547 5549 5551 5553 5556 5558 5560 5563 5565 5567 5569 5571 5573 5575 5577 5578 5579 5580
Wind_Speed
24 24 25 27 29 28 21 27 30 27 26 24 21 20 19 19 17 17 13 10 11 14 12 16 15 8 7 1 4 12 5 3 10 19 15 17 21 18 17 18 19 19 16 15 12 10 11 12 11
27 25 28 29 29 27 19 30 31 29 26 28 22 22 22 21 20 20 16 13 12 15 16 17 16 18 10 6 5 7 8 7 8 11 13 17 16 12 15 18 20 18 18 17 14 13 14 14 13
29 29 30 32 29 21 17 30 35 30 25 29 28 24 24 21 19 20 19 17 14 15 17 18 18 19 14 12 9 9 12 10 13 13 14 14 14 15 15 16 16 15 17 15 15 15 15 14 13
32 33 34 35 27 19 21 30 36 34 29 29 31 27 24 25 21 21 20 19 17 17 16 19 22 20 18 14 14 15 18 15 15 14 13 16 15 13 16 24 22 17 18 13 13 15 15 14 14
36 37 38 37 29 21 23 28 36 37 34 30 32 27 27 27 25 22 24 22 21 19 18 19 22 23 22 18 16 19 22 18 17 14 13 14 16 20 20 18 19 16 16 15 14 15 15 16 16
38 40 42 40 35 30 28 28 35 40 37 34 31 29 30 29 27 26 26 25 23 22 21 21 22 25 24 21 19 23 22 22 19 19 20 19 18 18 17 18 18 19 18 19 17 18 18 19 19
38 39 40 40 39 37 32 33 36 40 43 37 34 36 33 29 29 29 28 27 26 24 23 24 25 24 26 25 25 24 29 31 29 28 26 25 24 23 20 20 19 19 19 19 18 20 23 22 22
41 43 44 39 36 37 36 36 36 41 44 42 39 36 35 32 31 32 32 28 28 27 25 26 27 27 26 26 26 27 27 29 29 26 26 26 25 25 24 23 23 21 21 21 23 22 19 22 23
37 41 42 37 34 34 36 40 39 41 44 47 44 38 35 37 35 35 33 29 28 28 28 27 28 29 28 30 28 28 28 27 28 26 23 21 24 27 26 25 25 24 23 22 20 21 27 26 24
39 40 36 36 39 40 40 42 43 43 42 43 46 41 39 39 38 36 34 31 29 29 30 29 29 28 29 31 33 31 30 29 29 28 26 24 22 23 26 27 26 23 23 22 23 21 21 24 24
41 41 38 37 40 44 44 44 43 43 40 40 43 43 42 41 41 40 37 34 31 31 30 31 30 30 31 31 31 34 34 32 31 30 27 28 27 26 25 24 25 24 21 22 23 22 22 23 24
45 42 40 41 42 46 45 46 44 44 41 42 45 44 45 42 41 40 38 35 32 32 32 33 32 33 32 32 32 33 34 34 31 30 28 29 29 30 28 27 27 26 25 25 25 24 23 22 22
48 45 45 43 45 48 48 46 45 44 44 44 46 47 42 43 41 43 40 37 33 32 32 32 32 32 33 32 33 35 35 35 33 32 32 32 30 29 29 31 31 30 28 27 27 26 26 26 25
49 50 48 47 47 48 48 48 49 45 43 43 44 46 44 39 43 44 42 38 35 34 33 33 33 32 32 33 33 33 36 37 37 37 35 35 34 33 32 32 32 32 31 31 29 29 28 28 28
51 51 53 52 49 48 49 48 49 46 44 43 41 43 45 41 42 42 43 41 37 36 34 34 34 33 32 33 33 33 35 36 38 37 36 36 36 35 34 34 34 34 35 34 34 33 33 32 32
56 56 56 52 50 50 52 51 46 49 50 43 42 41 44 45 45 45 44 43 40 38 37 37 36 36 34 35 34 34 35 36 37 38 38 38 37 37 37 36 36 36 37 37 37 36 36 36 36
58 58 57 56 55 54 56 54 51 49 51 49 45 44 45 46 49 48 45 45 44 41 42 39 38 39 38 37 38 38 38 39 40 40 41 41 41 41 41 40 40 40 40 40 41 41 41 41 41
58 62 62 61 57 60 60 56 54 51 50 50 50 49 48 47 46 48 49 50 50 47 45 44 44 43 40 40 39 40 40 41 41 42 43 44 45 45 45 45 45 45 45 46 46 46 46 46 46
61 64 65 61 56 60 60 57 53 54 52 49 51 50 49 49 50 50 49 48 48 47 45 45 44 50 50 48 45 44 44 43 43 44 44 45 46 47 47 48 49 49 49 50 50 50 50 50 50
55 58 58 57 62 63 60 60 56 55 55 52 50 51 49 49 49 52 51 52 50 50 51 52 52 50 49 50 49 50 50 49 48 48 47 48 48 48 49 50 50 51 52 52 52 52 52 52 52
52 55 53 56 59 65 64 64 59 57 55 53 52 51 51 49 48 49 48 50 53 52 51 51 51 51 52 53 52 53 53 52 50 50 50 50 51 51 51 51 51 51 52 53 53 53 53 53 53
54 49 50 47 50 59 62 67 58 58 55 56 54 54 52 49 47 46 48 55 53 48 50 53 53 53 53 56 57 57 55 53 53 54 55 55 54 53 52 52 51 52 52 53 53 53 53 54 54
44 44 43 55 51 48 52 61 55 62 59 57 56 56 55 53 51 49 47 44 48 52 56 50 51 53 55 58 58 56 54 54 55 55 55 56 55 55 55 55 56 57 57 57 56 57 59 60 60
38 40 41 40 43 53 35 43 46 56 59 58 55 54 53 53 55 55 55 51 50 53 56 57 58 56 57 56 56 56 56 59 62 63 63 62 62 61 62 61 61 61 63 63 63 63 65 66 67
32 37 40 41 40 43 39 39 38 42 46 47 47 47 49 49 50 53 56 59 61 60 63 61 63 62 64 63 62 63 66 67 67 67 67 68 68 66 66 72 73 71 70 69 71 73 70 70 70
32 34 35 40 37 35 32 33 33 33 38 38 36 36 38 42 47 50 54 58 54 70 60 54 57 59 65 74 75 75 73 73 74 75 76 75 74 69 60 59 59 60 62 63 64 65 64 62 63
32 30 30 34 37 38 31 29 29 32 35 37 38 39 40 39 42 44 46 47 54 58 53 55 59 57 54 51 48 49 51 54 54 54 56 60 63 63 63 64 63 62 60 61 62 62 62 64 64
34 30 30 27 28 33 32 30 32 27 30 32 35 38 41 42 42 44 47 53 54 56 57 58 57 55 53 52 53 54 56 55 60 59 65 69 67 67 67 68 69 70 70 70 69 68 67 65 64
33 32 30 33 33 34 37 38 37 33 35 37 37 37 38 41 42 43 45 48 54 61 60 58 57 58 57 57 57 58 59 61 64 68 70 70 71 74 74 75 73 71 69 68 67 65 63 65 67
33 33 32 35 36 36 35 36 37 38 39 39 38 38 40 40 39 39 43 47 47 50 52 54 55 56 58 61 64 66 66 65 65 65 66 66 66 66 67 68 68 68 66 65 67 70 71 70 69
Wind_Direction
271 272 269 266 264 262 254 262 256 259 264 270 267 269 270 269 261 265 264 258 261 250 232 240 249 208 174 173 192 220 217 255 210 209 209 225 219 189 194 203 210 206 205 206 200 204 190 201 200
267 268 270 266 267 268 260 261 268 265 266 271 268 277 282 276 267 268 265 261 253 250 242 241 230 226 227 223 175 157 165 156 168 188 195 195 185 197 206 215 212 210 208 212 210 205 204 206 202
263 264 264 268 266 277 260 261 265 266 266 271 272 269 272 275 267 263 260 262 256 254 246 235 226 227 230 233 223 198 200 189 173 172 183 188 202 195 198 220 202 208 213 214 218 208 212 215 215
265 259 260 263 269 262 253 254 261 264 261 260 269 270 272 269 266 263 261 256 256 249 247 237 233 229 237 239 227 213 205 199 185 184 197 202 200 214 205 207 190 191 208 204 200 206 213 220 223
267 266 265 263 266 260 253 257 260 263 262 259 263 271 268 267 269 262 262 258 254 248 241 244 236 236 236 228 222 208 204 210 204 212 218 216 219 215 214 222 205 205 215 216 207 212 217 225 228
271 272 272 272 269 264 254 252 259 264 264 260 262 262 262 264 267 266 263 263 256 250 245 241 240 234 232 231 230 214 213 210 217 233 234 232 236 241 237 235 232 225 225 236 232 225 228 230 235
274 273 276 275 275 271 268 261 257 263 265 264 261 258 256 261 265 267 263 262 260 252 248 243 241 236 236 238 237 233 230 232 239 247 244 237 238 238 238 241 241 238 236 236 237 238 235 233 231
274 272 272 276 279 275 271 263 258 260 264 265 261 259 258 258 258 262 265 264 264 261 255 248 244 239 238 242 237 238 237 238 239 237 233 234 233 228 230 235 235 236 239 242 242 239 232 231 231
271 275 277 276 274 274 269 266 258 255 260 265 264 261 259 256 257 259 263 265 263 264 262 256 252 243 239 240 239 235 235 235 240 235 229 226 227 229 230 233 236 235 234 234 240 242 236 232 232
272 276 276 274 268 266 265 266 263 260 259 262 268 266 259 254 254 257 260 262 261 261 263 260 254 250 242 239 241 242 239 238 236 236 234 230 229 229 228 227 231 229 230 232 230 233 233 232 235
275 279 274 272 269 266 263 263 264 264 263 264 265 261 259 253 252 253 257 261 261 260 263 263 258 251 247 245 245 244 244 240 235 235 238 238 235 234 230 229 228 228 230 227 223 227 228 232 231
275 275 272 268 266 265 264 262 260 262 261 257 257 261 258 252 249 251 253 256 258 259 261 262 258 254 250 248 244 244 243 240 237 238 241 243 238 235 232 232 230 231 232 230 232 232 228 229 228
274 275 270 269 266 266 266 265 263 261 262 257 256 258 259 253 244 246 250 252 255 259 261 262 258 255 252 248 243 240 241 240 240 242 246 245 240 236 234 233 234 236 235 235 234 234 234 235 234
270 271 271 269 265 263 264 264 262 260 260 262 259 255 255 255 246 242 248 250 251 253 256 258 258 255 252 248 243 239 238 239 239 242 243 243 243 241 238 238 237 237 238 238 240 240 239 239 238
269 267 267 266 265 262 262 259 265 262 258 257 258 258 252 246 251 242 243 246 247 248 253 255 256 255 250 247 243 240 236 236 237 240 241 243 244 245 244 242 242 242 241 241 242 242 242 243 244
273 269 268 268 267 264 258 258 255 256 254 250 252 253 255 246 242 241 242 243 244 245 248 251 254 253 251 249 246 243 240 238 238 239 243 247 250 250 250 249 247 245 245 244 245 245 245 246 246
274 275 272 265 261 256 253 251 247 248 250 249 246 247 249 251 242 242 243 243 243 244 245 250 253 258 256 253 250 249 248 245 246 245 246 248 250 252 252 252 252 252 251 250 248 248 248 248 248
274 269 266 265 263 262 258 254 249 250 248 249 248 245 245 246 247 245 243 242 245 243 244 244 247 251 255 256 254 252 251 251 250 250 250 250 251 252 252 253 253 253 253 252 251 250 249 249 249
276 275 273 268 262 260 262 259 253 251 249 247 250 250 248 248 246 245 246 245 242 244 244 247 250 254 254 255 253 255 250 249 249 250 251 251 251 252 252 252 252 252 252 252 252 251 250 250 249
279 277 274 268 262 259 257 256 253 251 249 246 245 246 247 247 248 245 246 247 247 244 243 244 247 246 246 248 249 250 251 250 250 251 252 253 254 255 254 254 253 252 252 251 251 251 252 252 252
276 274 274 273 261 258 257 255 252 251 250 247 246 245 246 248 248 246 246 247 248 248 248 247 246 246 246 247 248 251 251 252 253 253 253 252 253 253 254 253 253 253 252 252 252 253 253 254 254
280 274 267 273 272 264 257 260 255 252 250 248 245 245 246 250 250 249 245 245 244 246 248 248 247 244 243 246 249 250 249 249 249 248 248 248 250 252 252 253 253 253 254 254 255 255 256 257 257
276 272 271 265 276 271 263 261 261 252 249 247 246 244 243 243 242 241 241 240 248 249 242 234 237 241 245 245 244 244 244 246 247 248 250 251 251 252 253 253 253 253 254 255 255 255 256 257 257
266 274 272 268 274 269 284 268 257 260 261 256 254 248 244 241 242 244 243 239 234 240 246 248 247 242 242 241 240 240 240 241 243 244 246 248 249 249 250 251 252 252 254 255 255 256 257 257 257
273 274 278 277 277 278 280 270 262 260 259 259 258 252 244 246 248 244 245 246 245 245 243 247 246 242 240 239 238 239 242 244 247 249 249 250 250 253 253 251 250 251 249 250 256 257 258 259 260
277 278 278 283 284 279 272 275 273 267 267 265 263 262 251 244 241 244 247 247 238 237 239 238 241 241 242 241 240 243 249 252 253 253 251 253 257 257 253 254 254 253 253 256 258 258 258 258 258
280 279 279 279 275 275 273 274 273 270 269 268 266 263 257 245 240 241 238 241 249 250 246 245 250 246 244 245 243 241 242 245 247 248 249 248 249 249 251 249 252 254 254 255 257 258 257 257 260
276 279 275 274 275 278 273 271 272 269 268 267 269 266 263 258 254 252 253 250 248 250 252 252 253 254 252 250 251 252 252 248 246 251 253 251 249 250 249 251 252 252 253 257 259 262 265 266 266
274 272 271 272 278 282 278 275 271 269 267 267 265 263 262 260 258 254 252 247 247 244 244 247 247 249 250 249 249 249 248 247 244 245 247 249 250 251 251 253 255 257 258 260 261 261 260 261 263
272 272 266 268 277 277 279 277 274 271 268 268 271 267 265 261 257 257 257 254 253 249 246 244 245 247 249 250 251 251 251 253 254 256 255 255 255 255 257 258 259 259 259 258 258 261 263 264 264